Tracking 19489 objects as of 23-Jan-2019
HD Live streaming from Space Station
objects crossing your sky now

SL-4 R/B

Track SL-4 R/B now!
10-day predictions
SL-4 R/B is classified as:


NORAD ID: 42800
Int'l Code: 2017-037C
Perigee: 279.4 km
Apogee: 509.7 km
Inclination: 98.0 °
Period: 92.3 minutes
Semi major axis: 6765 km
RCS: Unknown
Launch date: June 23, 2017
Source: Commonwealth of Independent States (former USSR) (CIS)
Launch site: PLESETSK MISSILE AND SPACE COMPLEX (PKMTR)

Note: This is a ROCKET BODY
aabbcc
Your satellite tracking list
Your tracking list is empty




NASA's NSSDC Master Catalog

Two Line Element Set (TLE):
1 42800U 17037C   19022.46838412  .00033227  27213-5  20369-3 0  9992
2 42800  98.0463 161.4815 0170235 162.6671 198.0497 15.60079591 89243
Source of the keplerian elements: AFSPC